TimeEDT,TemperatureF,Dew PointF,Humidity,Sea Level PressureIn,VisibilityMPH,Wind Direction,Wind SpeedMPH,Gust SpeedMPH,PrecipitationIn,Events,Conditions,WindDirDegrees,DateUTC
12:15 AM,45.5,42.8,90,30.10,10.0,Calm,Calm,-,N/A,,Clear,0,2014-03-29 04:15:00
12:35 AM,45.0,42.4,91,30.10,10.0,Calm,Calm,-,N/A,,Mostly Cloudy,0,2014-03-29 04:35:00
12:55 AM,43.9,41.7,92,30.10,7.0,Calm,Calm,-,N/A,,Scattered Clouds,0,2014-03-29 04:55:00
1:15 AM,43.9,41.7,92,30.10,10.0,Calm,Calm,-,N/A,,Scattered Clouds,0,2014-03-29 05:15:00
1:35 AM,42.6,40.5,92,30.10,7.0,Calm,Calm,-,N/A,,Mostly Cloudy,0,2014-03-29 05:35:00
1:55 AM,43.5,41.7,93,30.08,7.0,Calm,Calm,-,N/A,,Overcast,0,2014-03-29 05:55:00
2:15 AM,44.1,42.3,93,30.06,7.0,Calm,Calm,-,N/A,,Overcast,0,2014-03-29 06:15:00
2:35 AM,43.7,41.7,93,30.05,7.0,Calm,Calm,-,N/A,,Overcast,0,2014-03-29 06:35:00
2:55 AM,43.2,41.4,93,30.05,5.0,Calm,Calm,-,N/A,,Overcast,0,2014-03-29 06:55:00
3:15 AM,43.3,41.9,95,30.05,5.0,Calm,Calm,-,N/A,,Overcast,0,2014-03-29 07:15:00
3:35 AM,43.0,41.5,95,30.05,5.0,Calm,Calm,-,N/A,,Overcast,0,2014-03-29 07:35:00
3:55 AM,42.6,41.2,95,30.03,4.0,Calm,Calm,-,N/A,,Overcast,0,2014-03-29 07:55:00
4:15 AM,43.2,41.7,95,30.03,4.0,NNE,5.8,-,N/A,,Overcast,30,2014-03-29 08:15:00
4:35 AM,42.6,40.8,93,30.01,2.5,NNE,4.6,-,N/A,,Overcast,30,2014-03-29 08:35:00
4:55 AM,42.6,40.8,93,30.01,3.0,North,5.8,-,N/A,,Mostly Cloudy,10,2014-03-29 08:55:00
5:15 AM,43.0,41.2,93,30.01,5.0,NNE,8.1,-,N/A,,Scattered Clouds,20,2014-03-29 09:15:00
5:35 AM,42.1,40.5,94,29.99,3.0,NNE,8.1,-,N/A,,Scattered Clouds,20,2014-03-29 09:35:00
5:55 AM,42.8,41.0,93,29.98,5.0,NNE,8.1,-,N/A,,Mostly Cloudy,20,2014-03-29 09:55:00
6:15 AM,41.5,39.9,94,29.99,2.0,Calm,Calm,-,N/A,,Overcast,0,2014-03-29 10:15:00
6:35 AM,41.4,39.7,94,29.99,1.5,NNE,5.8,-,N/A,,Mostly Cloudy,20,2014-03-29 10:35:00
6:55 AM,42.4,40.8,94,29.98,5.0,NNE,6.9,-,N/A,,Scattered Clouds,20,2014-03-29 10:55:00
7:15 AM,42.1,40.5,94,29.99,3.0,Calm,Calm,-,N/A,,Mostly Cloudy,0,2014-03-29 11:15:00
7:35 AM,43.2,41.5,94,29.98,5.0,North,9.2,-,N/A,,Overcast,10,2014-03-29 11:35:00
7:55 AM,43.9,42.3,94,29.99,7.0,NNE,3.5,-,N/A,,Light Drizzle,30,2014-03-29 11:55:00
8:15 AM,44.2,42.8,95,29.99,5.0,Calm,Calm,-,N/A,Rain,Rain,0,2014-03-29 12:15:00
8:35 AM,44.6,42.8,93,29.98,4.0,NE,4.6,-,N/A,,Drizzle,40,2014-03-29 12:35:00
8:55 AM,44.2,42.6,94,29.98,3.0,NNE,3.5,-,0.01,,Drizzle,20,2014-03-29 12:55:00
9:15 AM,44.8,43.0,93,29.98,5.0,NNE,4.6,-,N/A,,Light Drizzle,20,2014-03-29 13:15:00
9:35 AM,45.7,43.9,93,29.98,5.0,NNE,5.8,-,N/A,Rain,Light Rain,20,2014-03-29 13:35:00
9:55 AM,46.4,44.2,92,29.96,4.0,North,4.6,-,N/A,Rain,Light Rain,360,2014-03-29 13:55:00
10:15 AM,48.6,46.6,93,29.96,5.0,NE,3.5,-,N/A,,Overcast,40,2014-03-29 14:15:00
10:35 AM,48.9,46.8,92,29.94,4.0,NE,4.6,-,N/A,Rain,Light Rain,50,2014-03-29 14:35:00
10:55 AM,50.5,48.2,92,29.93,7.0,ENE,4.6,-,N/A,,Overcast,70,2014-03-29 14:55:00
11:15 AM,50.9,48.0,90,29.92,7.0,East,3.5,-,0.01,Rain,Light Rain,90,2014-03-29 15:15:00
11:35 AM,51.4,48.4,89,29.91,7.0,Calm,Calm,-,0.01,Rain,Light Rain,0,2014-03-29 15:35:00
11:55 AM,51.3,48.2,89,29.89,7.0,East,5.8,-,0.01,,Overcast,100,2014-03-29 15:55:00
12:15 PM,51.4,48.2,89,29.88,7.0,ENE,3.5,-,N/A,,Overcast,60,2014-03-29 16:15:00
12:35 PM,51.6,48.6,89,29.86,5.0,ENE,3.5,-,N/A,,Overcast,70,2014-03-29 16:35:00
12:55 PM,51.4,48.4,89,29.86,5.0,North,3.5,-,N/A,,Overcast,360,2014-03-29 16:55:00
1:15 PM,50.9,48.4,91,29.84,2.5,Calm,Calm,-,N/A,Rain,Rain,0,2014-03-29 17:15:00
1:35 PM,52.0,49.6,92,29.81,2.5,ENE,4.6,-,0.02,Rain,Rain,70,2014-03-29 17:35:00
1:55 PM,52.0,49.5,91,29.80,2.5,East,4.6,-,0.04,,Light Drizzle,80,2014-03-29 17:55:00
2:15 PM,52.3,49.6,91,29.77,7.0,East,3.5,-,N/A,,Overcast,90,2014-03-29 18:15:00
2:35 PM,52.5,49.5,89,29.75,5.0,East,3.5,-,0.01,Rain,Light Rain,90,2014-03-29 18:35:00
2:55 PM,52.9,49.6,89,29.73,10.0,ESE,5.8,-,0.02,Rain,Light Rain,110,2014-03-29 18:55:00
3:15 PM,52.7,49.1,88,29.73,5.0,Calm,Calm,-,0.02,Rain,Rain,0,2014-03-29 19:15:00
3:35 PM,53.1,50.0,89,29.71,4.0,ENE,4.6,-,0.06,Rain,Rain,70,2014-03-29 19:35:00
3:55 PM,52.9,49.5,88,29.70,10.0,Calm,Calm,-,0.07,,Overcast,0,2014-03-29 19:55:00
4:15 PM,52.9,49.6,89,29.69,5.0,ESE,4.6,-,N/A,Rain,Light Rain,120,2014-03-29 20:15:00
4:35 PM,53.1,50.0,89,29.68,10.0,Calm,Calm,-,0.04,Rain,Light Rain,0,2014-03-29 20:35:00
4:55 PM,54.5,51.1,88,29.65,10.0,East,3.5,-,0.04,,Overcast,90,2014-03-29 20:55:00
5:15 PM,54.7,50.9,87,29.64,10.0,ENE,4.6,-,N/A,,Overcast,70,2014-03-29 21:15:00
5:35 PM,54.5,50.5,86,29.64,10.0,ESE,4.6,-,N/A,,Overcast,110,2014-03-29 21:35:00
5:55 PM,54.5,50.7,87,29.64,10.0,Calm,Calm,-,N/A,,Overcast,0,2014-03-29 21:55:00
6:15 PM,54.7,50.9,87,29.63,10.0,Calm,Calm,-,N/A,,Overcast,0,2014-03-29 22:15:00
6:35 PM,53.6,50.2,88,29.63,10.0,North,4.6,-,N/A,,Overcast,10,2014-03-29 22:35:00
6:55 PM,53.2,50.5,91,29.62,10.0,NNE,5.8,-,N/A,,Overcast,20,2014-03-29 22:55:00
7:15 PM,53.6,50.5,89,29.61,4.0,Calm,Calm,-,0.01,Rain,Heavy Rain,0,2014-03-29 23:15:00
7:35 PM,53.1,50.4,91,29.61,4.0,Calm,Calm,-,0.05,Rain,Rain,0,2014-03-29 23:35:00
7:55 PM,52.3,50.0,92,29.60,7.0,Calm,Calm,-,0.06,,Light Drizzle,0,2014-03-29 23:55:00
8:15 PM,52.2,49.8,92,29.59,7.0,Calm,Calm,-,N/A,,Overcast,0,2014-03-30 00:15:00
8:35 PM,46.8,44.4,92,29.63,5.0,West,15.0,23.0,0.06,Rain,Light Rain,280,2014-03-30 00:35:00
8:55 PM,42.8,39.7,89,29.65,4.0,WNW,15.0,24.2,0.09,Rain,Heavy Rain,290,2014-03-30 00:55:00
9:15 PM,41.4,37.6,86,29.68,10.0,NW,10.4,19.6,N/A,Rain,Light Rain,310,2014-03-30 01:15:00
9:35 PM,40.1,36.1,86,29.70,10.0,West,9.2,-,0.01,,Light Drizzle,260,2014-03-30 01:35:00
9:55 PM,38.8,34.9,86,29.71,10.0,West,11.5,19.6,0.01,,Light Drizzle,260,2014-03-30 01:55:00
10:15 PM,37.4,33.4,86,29.72,10.0,West,11.5,18.4,N/A,,Light Drizzle,260,2014-03-30 02:15:00
10:35 PM,36.9,32.9,86,29.72,10.0,West,12.7,20.7,N/A,Rain,Rain,260,2014-03-30 02:35:00
10:55 PM,36.3,32.5,86,29.74,10.0,West,10.4,21.9,N/A,,Overcast,270,2014-03-30 02:55:00
11:15 PM,35.8,32.5,88,29.75,10.0,West,10.4,18.4,N/A,,Overcast,270,2014-03-30 03:15:00
11:35 PM,35.6,32.0,87,29.75,10.0,West,8.1,-,N/A,,Overcast,280,2014-03-30 03:35:00
11:55 PM,34.9,31.6,88,29.76,7.0,West,9.2,-,0.01,,Overcast,270,2014-03-30 03:55:00